Location: Rowland
(34.5359°N, 79.2929°W)
Time: 01:57:41
(UTC+00:00)

Transit 2A Rocket - Pass Details

Date: 08 October 2022
Orbit: 588 x 912 km, 66.7° (Epoch: 08 December)

Event Time Altitude Azimuth Distance (km) Brightness Sun altitude
Rises 17:14:35 0° 355° (N) 3,042 7.7 49.3°
Reaches altitude 10° 17:18:12 10° 23° (NNE) 2,199 7.1 49.3°
Maximum altitude 17:20:29 13° 51° (NE) 2,047 7.1 49.2°
Drops below altitude 10° 17:22:50 10° 78° (ENE) 2,293 7.4 49.2°
Sets 17:26:46 0° 105° (ESE) 3,301 8.3 49.1°
